[[{"header":{"parameterUnit":"m.s-1","parameterCategory":1,"la1":30.2991,"la2":30.254,"lo1":-89.0895,"lo2":-89.0444,"dy":0.0017,"dx":0.0017,"nx":28,"ny":28,"refTime":"2024-03-29T03:00:00:Z","depth":0,"parameterNumber":2,"parameterNumberName":"U-component_of_WINDS"},"data":[0,0,0,0,0,0,0,0,0,0,0,0,0,0,0,0,0,0,0,0,0,0,0,0,0,0,0,0,0,0,0,0,0,0,0,0,0,0,0,0,0,0,0,0,0,0,0,0,0,0,0,0,0,0,0,0,0,0,-1.7548,-1.7549,0,-1.7616,-1.7617,-1.7618,-1.7634,-1.7634,-1.7634,-1.7633,-1.7703,-1.7705,-1.7708,0,0,0,0,0,0,0,0,0,0,0,0,0,-1.7433,-1.7435,-1.7548,-1.7549,-1.755,-1.7616,-1.7617,-1.7618,-1.7635,-1.7634,-1.7633,-1.7633,-1.7703,-1.7705,-1.7708,0,0,0,0,0,0,0,0,0,0,0,0,0,-1.7491,-1.7436,-1.7548,-1.7566,-1.7568,-1.7616,-1.7617,-1.7618,-1.7635,-1.7634,-1.7633,-1.7633,-1.7702,-1.7705,-1.7708,-1.7743,0,0,-1.7719,-1.772,0,0,0,0,0,0,0,0,-1.7487,-1.7495,-1.7563,-1.7565,-1.7568,-1.7616,-1.7602,-1.766,-1.7635,-1.761,-1.7633,-1.7632,-1.7675,-1.768,-1.7695,-1.7746,-1.7749,-1.7719,-1.7721,-1.7723,-1.7724,0,0,0,0,0,0,0,-1.7483,-1.7492,-1.7575,-1.7564,-1.7567,-1.7571,-1.7579,-1.7614,-1.7645,-1.7612,-1.7613,-1.7621,-1.7676,-1.7691,-1.7697,-1.775,-1.7719,-1.7722,-1.7724,-1.7726,-1.7834,-1.7835,0,0,0,0,0,0,-1.7476,-1.7489,-1.7573,-1.7577,-1.7525,-1.7574,-1.7582,-1.7601,-1.7645,-1.7651,-1.7621,-1.7621,-1.7686,-1.7692,-1.7699,-1.7742,-1.7723,-1.7726,-1.7728,-1.7833,-1.7834,-1.7835,0,0,0,0,0,0,-1.7474,-1.7484,-1.757,-1.7533,-1.7545,-1.7576,-1.7598,-1.7603,-1.7618,-1.7652,-1.7658,-1.7631,-1.7686,-1.7694,-1.7732,-1.7745,-1.7727,-1.7731,-1.7832,-1.7833,-1.7834,-1.7829,0,0,0,0,0,0,-1.747,-1.7483,-1.7496,-1.7534,-1.7547,-1.7602,-1.7599,-1.7605,-1.7624,-1.7625,-1.7663,-1.7668,-1.7686,-1.7727,-1.7735,-1.7749,-1.7733,-1.7831,-1.7833,-1.7834,-1.7828,-1.7829,-1.7831,0,0,0,0,0,-1.7466,-1.7492,-1.7496,-1.7507,-1.7564,-1.7603,-1.761,-1.7629,-1.7625,-1.7639,-1.7661,-1.7667,-1.7742,-1.773,-1.774,-1.7755,-1.783,-1.7832,-1.7834,-1.7827,-1.7829,-1.7831,0,0,0,0,0,0,-1.7455,-1.7497,-1.7503,-1.7541,-1.7568,-1.7605,-1.7623,-1.7631,-1.766,-1.7659,-1.7682,-1.7691,-1.7727,-1.7745,-1.7731,-1.7791,-1.7786,-1.779,-1.7778,-1.778,-1.7781,-1.7776,-1.7736,0,0,0,0,0,-1.7457,-1.7484,-1.752,-1.755,-1.7564,-1.7591,-1.7609,-1.7621,-1.765,-1.7662,-1.7686,-1.7714,-1.7744,-1.7763,-1.7793,-1.7831,-1.7839,-1.7846,-1.7848,-1.7849,-1.7852,-1.7873,-1.7876,-1.7841,-1.7841,-1.7841,0,0,-1.7461,-1.7488,-1.7504,-1.7549,-1.7571,-1.7599,-1.7601,-1.763,-1.7652,-1.7666,-1.7703,-1.7722,-1.7755,-1.7793,-1.7811,-1.7809,-1.7864,-1.7851,-1.7852,-1.7854,-1.7875,-1.7878,-1.7881,-1.7842,-1.7842,-1.7842,0,0,-1.7483,-1.7506,-1.7534,-1.7556,-1.759,-1.7608,-1.7615,-1.7651,-1.7664,-1.7702,-1.7713,-1.7739,-1.779,-1.7813,-1.7831,-1.7862,-1.7869,-1.7871,-1.7879,-1.79,-1.7902,-1.7905,-1.7915,-1.7919,-1.7874,-1.7874,-1.7874,0,-1.7484,-1.7527,-1.7547,-1.7576,-1.7596,-1.7611,-1.7639,-1.766,-1.7702,-1.7715,-1.7712,-1.7777,-1.78,-1.7843,-1.7851,-1.7866,-1.7874,-1.7866,-1.79,-1.7903,-1.7906,-1.7916,-1.792,-1.7874,-1.7874,-1.7874,-1.7874,0,-1.7526,-1.7556,-1.7574,-1.7613,-1.7635,-1.7664,-1.7689,-1.7708,-1.7719,-1.7738,-1.7776,-1.7804,-1.7839,-1.7851,-1.7862,-1.7896,-1.7894,-1.7896,-1.7891,-1.7909,-1.7918,-1.7923,-1.7874,-1.7874,-1.7874,-1.7874,0,0,-1.7542,-1.7593,-1.7599,-1.7617,-1.7656,-1.7679,-1.7708,-1.7743,-1.7759,-1.7788,-1.7812,-1.7856,-1.7858,-1.7878,-1.7892,-1.791,-1.7932,-1.791,-1.7911,-1.7912,-1.7971,-1.7968,-1.7972,-1.7938,-1.7939,-1.7939,-1.7968,0,-1.7568,-1.762,-1.764,-1.7683,-1.771,-1.7725,-1.7751,-1.7777,-1.7795,-1.7821,-1.7842,-1.7872,-1.7873,-1.7885,-1.7904,-1.7926,-1.7944,-1.7924,-1.7961,-1.7962,-1.7951,-1.7978,-1.7975,-1.8001,-1.7972,-1.7973,-1.7973,0,-1.7605,-1.7634,-1.7679,-1.7714,-1.7726,-1.7749,-1.7782,-1.7807,-1.7838,-1.785,-1.7873,-1.7886,-1.7917,-1.7911,-1.7955,-1.7941,-1.7957,-1.7971,-1.7972,-1.7975,-1.7968,-1.7981,-1.8009,-1.8013,-1.798,-1.7979,-1.7979,0,-1.7611,-1.7661,-1.7695,-1.771,-1.7752,-1.7767,-1.7785,-1.7815,-1.7835,-1.7864,-1.7877,-1.7909,-1.7927,-1.7952,-1.7973,-1.7967,-1.8015,-1.8011,-1.8025,-1.8025,-1.8034,-1.8032,-1.8064,-1.8046,-1.8046,-1.8046,-1.8046,0,-1.7637,-1.7664,-1.7698,-1.7718,-1.7749,-1.7771,-1.7802,-1.7821,-1.7848,-1.7872,-1.7888,-1.7911,-1.7938,-1.7964,-1.7982,-1.8015,-1.8023,-1.8033,-1.8037,-1.8031,-1.803,-1.8041,-1.804,-1.8047,-1.8047,-1.8046,-1.8046,0,-1.7649,-1.7672,-1.7709,-1.7746,-1.7756,-1.7777,-1.7809,-1.7829,-1.7848,-1.788,-1.7888,-1.7918,-1.795,-1.7974,-1.8016,-1.8028,-1.8063,-1.8068,-1.8052,-1.8054,-1.8067,-1.8065,-1.8106,-1.8112,-1.8091,-1.8091,-1.8091,0,-1.7663,-1.7684,-1.7723,-1.7741,-1.7759,-1.7787,-1.7807,-1.783,-1.785,-1.7886,-1.7903,-1.7936,-1.7963,-1.8014,-1.804,-1.8072,-1.8077,-1.8089,-1.8081,-1.8075,-1.8076,-1.8074,-1.8076,-1.8089,-1.809,-1.809,-1.809,0,-1.7687,-1.7697,-1.7725,-1.7757,-1.7779,-1.7806,-1.7832,-1.7846,-1.7874,-1.7896,-1.7928,-1.795,-1.7992,-1.8025,-1.806,-1.8079,-1.8089,-1.8092,-1.8097,-1.809,-1.808,-1.8085,-1.8054,-1.8091,-1.8091,-1.8091,-1.809,-1.809,-1.77,-1.7719,-1.7749,-1.7779,-1.7802,-1.7826,-1.7847,-1.7869,-1.7896,-1.7932,-1.7945,-1.7979,-1.8009,-1.8056,-1.8076,-1.8103,-1.8103,-1.811,-1.8112,-1.8113,-1.8112,-1.8077,-1.811,-1.811,-1.811,-1.811,-1.811,0,-1.7723,-1.7743,-1.7771,-1.7807,-1.7831,-1.7839,-1.7868,-1.7888,-1.7917,-1.7945,-1.7971,-1.8009,-1.8041,-1.8069,-1.8102,-1.8118,-1.8124,-1.8126,-1.8125,-1.8129,-1.8111,-1.8103,-1.8121,-1.8121,-1.8121,-1.8121,-1.8121,-1.8121,-1.7738,-1.7771,-1.7785,-1.7829,-1.7849,-1.7882,-1.7898,-1.7921,-1.7943,-1.7984,-1.801,-1.8028,-1.8056,-1.8092,-1.8121,-1.8129,-1.814,-1.8141,-1.815,-1.8132,-1.813,-1.8129,-1.8121,-1.8143,-1.8143,-1.8165,-1.8166,-1.8166]},{"header":{"parameterUnit":"m.s-1","parameterCategory":1,"la1":30.2991,"la2":30.254,"lo1":-89.0895,"lo2":-89.0444,"dy":0.0017,"dx":0.0017,"nx":28,"ny":28,"refTime":"2024-03-29T03:00:00:Z","depth":0,"parameterNumber":3,"parameterNumberName":"V-component_of_WINDS"},"data":[0,0,0,0,0,0,0,0,0,0,0,0,0,0,0,0,0,0,0,0,0,0,0,0,0,0,0,0,0,0,0,0,0,0,0,0,0,0,0,0,0,0,0,0,0,0,0,0,0,0,0,0,0,0,0,0,0,0,3.5389,3.5389,0,3.5397,3.5397,3.5397,3.5387,3.5387,3.5386,3.5386,3.5393,3.5394,3.5394,0,0,0,0,0,0,0,0,0,0,0,0,0,3.5367,3.5368,3.5389,3.5389,3.5389,3.5397,3.5397,3.5397,3.5387,3.5387,3.5386,3.5386,3.5393,3.5394,3.5395,0,0,0,0,0,0,0,0,0,0,0,0,0,3.5376,3.5368,3.5389,3.5385,3.5385,3.5397,3.5397,3.5397,3.5387,3.5387,3.5386,3.5385,3.5393,3.5394,3.5395,3.541,0,0,3.5397,3.5397,0,0,0,0,0,0,0,0,3.5376,3.5377,3.5386,3.5386,3.5385,3.539,3.5392,3.5402,3.5387,3.5386,3.5386,3.5385,3.5393,3.5394,3.5396,3.5411,3.5411,3.5397,3.5398,3.5398,3.5398,0,0,0,0,0,0,0,3.5375,3.5377,3.5392,3.5386,3.5386,3.5384,3.5384,3.5394,3.5392,3.5386,3.5386,3.5387,3.5393,3.5395,3.5396,3.5411,3.5397,3.5398,3.5398,3.5399,3.5442,3.5442,0,0,0,0,0,0,3.5375,3.5376,3.5392,3.5392,3.5379,3.5384,3.5385,3.5389,3.5392,3.5392,3.5387,3.5386,3.5394,3.5395,3.5397,3.5417,3.5398,3.5399,3.5399,3.5441,3.5442,3.5443,0,0,0,0,0,0,3.5374,3.5376,3.5392,3.5384,3.5386,3.5385,3.539,3.539,3.5393,3.5393,3.5393,3.539,3.5394,3.5395,3.5408,3.5417,3.5399,3.54,3.544,3.5441,3.5442,3.5456,0,0,0,0,0,0,3.5374,3.5376,3.5382,3.5384,3.5386,3.5402,3.5391,3.539,3.5394,3.5393,3.5396,3.5396,3.5394,3.5406,3.5408,3.5418,3.54,3.5439,3.5441,3.5442,3.5455,3.5458,3.546,0,0,0,0,0,3.5373,3.5385,3.5382,3.5384,3.5393,3.5403,3.5404,3.5401,3.5395,3.5401,3.5401,3.5396,3.5416,3.5408,3.541,3.5419,3.5439,3.544,3.5442,3.5454,3.5457,3.546,0,0,0,0,0,0,3.5383,3.5385,3.5382,3.5395,3.5399,3.5401,3.5408,3.5404,3.541,3.5409,3.5405,3.5406,3.5419,3.5421,3.5412,3.5436,3.5426,3.5428,3.5435,3.5438,3.544,3.544,3.5401,0,0,0,0,0,3.5387,3.5394,3.5396,3.5407,3.5409,3.5409,3.5412,3.541,3.5414,3.5416,3.5417,3.5421,3.5428,3.5433,3.544,3.5455,3.5457,3.5463,3.5466,3.5468,3.547,3.548,3.5483,3.5447,3.5447,3.5447,0,0,3.5394,3.5396,3.5401,3.5409,3.5412,3.542,3.541,3.5418,3.5425,3.5417,3.5429,3.543,3.5435,3.5449,3.5456,3.5451,3.548,3.547,3.5471,3.5472,3.5482,3.5485,3.5488,3.5448,3.5448,3.5448,0,0,3.5413,3.5415,3.5425,3.5428,3.5433,3.5433,3.5436,3.5439,3.544,3.5452,3.5447,3.5454,3.5466,3.547,3.5474,3.5497,3.5492,3.5499,3.5512,3.5522,3.5525,3.5527,3.5536,3.554,3.5501,3.5501,3.5501,0,3.5422,3.5433,3.5431,3.5441,3.5445,3.5439,3.545,3.5454,3.546,3.5463,3.5458,3.5475,3.5477,3.5493,3.5499,3.5502,3.5506,3.5498,3.5524,3.5527,3.5529,3.5538,3.5541,3.5501,3.5501,3.5501,3.5501,0,3.5445,3.5454,3.5462,3.5469,3.5474,3.5484,3.5484,3.549,3.5488,3.5489,3.5502,3.5505,3.5513,3.5517,3.5515,3.5534,3.5531,3.5525,3.5515,3.5533,3.5542,3.5545,3.5503,3.5502,3.5502,3.5502,0,0,3.5469,3.5476,3.5479,3.5483,3.5488,3.5495,3.5506,3.5514,3.552,3.5525,3.5535,3.5547,3.5542,3.5546,3.5545,3.5553,3.5573,3.5547,3.5547,3.5552,3.5596,3.5601,3.5605,3.557,3.5571,3.5571,3.5596,0,3.5488,3.5507,3.5506,3.5523,3.5532,3.5528,3.5538,3.5543,3.5544,3.5552,3.5554,3.5563,3.5555,3.5558,3.5567,3.5569,3.5582,3.5567,3.558,3.5581,3.558,3.5609,3.5613,3.5637,3.5599,3.56,3.56,0,3.5512,3.552,3.5538,3.5545,3.5548,3.5557,3.5566,3.5573,3.5579,3.558,3.5586,3.5583,3.5596,3.5586,3.5603,3.5593,3.5599,3.5601,3.5602,3.5603,3.5592,3.5612,3.5644,3.5648,3.5605,3.5604,3.5604,0,3.5529,3.5543,3.5557,3.5561,3.5568,3.5574,3.5578,3.5583,3.5589,3.5597,3.5601,3.561,3.5615,3.5622,3.5623,3.5615,3.5641,3.5631,3.5643,3.5643,3.5649,3.5648,3.5683,3.5651,3.5651,3.5651,3.5651,0,3.5551,3.5563,3.5565,3.5573,3.5587,3.5587,3.5601,3.5604,3.5609,3.5619,3.5615,3.5624,3.5624,3.5634,3.5635,3.565,3.5652,3.5654,3.5654,3.5654,3.5654,3.5658,3.5657,3.5652,3.5652,3.5652,3.5651,0,3.5572,3.5574,3.5588,3.5595,3.5597,3.5607,3.5612,3.5621,3.5623,3.5635,3.5638,3.5641,3.5653,3.5654,3.5667,3.5668,3.5687,3.5685,3.5685,3.5685,3.5698,3.5697,3.5736,3.5742,3.5706,3.5706,3.5706,0,3.5586,3.5596,3.5603,3.561,3.5614,3.5624,3.563,3.563,3.5637,3.5646,3.5654,3.5665,3.5674,3.5693,3.5697,3.5708,3.5707,3.572,3.5708,3.5709,3.5708,3.5708,3.571,3.5722,3.5722,3.5723,3.5723,0,3.5612,3.5613,3.5621,3.5632,3.5639,3.5647,3.5654,3.566,3.5661,3.567,3.5682,3.5689,3.5703,3.5715,3.5726,3.573,3.5727,3.5727,3.573,3.5731,3.5731,3.5733,3.5692,3.5726,3.5725,3.5725,3.5725,3.5725,3.563,3.5639,3.5647,3.5657,3.5663,3.5671,3.568,3.5683,3.5693,3.5705,3.5705,3.5719,3.5727,3.5741,3.5746,3.5758,3.5753,3.5758,3.576,3.5761,3.5763,3.5729,3.576,3.576,3.5759,3.5759,3.5759,0,3.5657,3.5662,3.5671,3.5682,3.5691,3.5688,3.5697,3.5705,3.5717,3.5725,3.5734,3.5749,3.5761,3.5767,3.5779,3.5787,3.5786,3.579,3.579,3.5791,3.5765,3.5762,3.5791,3.5791,3.5791,3.5791,3.5791,3.5791,3.5671,3.5687,3.5689,3.5708,3.5712,3.5726,3.5731,3.5739,3.5745,3.5762,3.5772,3.5776,3.5783,3.5796,3.5808,3.5809,3.5814,3.5819,3.582,3.5796,3.5793,3.579,3.5786,3.582,3.582,3.5845,3.5845,3.5845]}]]